This is the latest recevied weather packets stored in our database for station/object DL9GJ-4. If no packets are shown the sender has not sent any weather packets the latest 10 day(s).
| Time | Temp. | Humidity | Pressure | Rain* | Wind** | Luminosity | Snow |
|---|---|---|---|---|---|---|---|
| 1778244691 | 19.44° C | 15% | 1013 hPa | 0 mm | - | - | - |
| 1778244329 | 20° C | 15% | 1013 hPa | 0 mm | - | - | - |
| 1778243604 | 20.56° C | 14% | 1013 hPa | 0 mm | - | - | - |
| 1778242876 | 20° C | 17% | 1013 hPa | 0 mm | - | - | - |
| 1778242511 | 19.44° C | 17% | 1013 hPa | 0 mm | - | - | - |
| 1778241788 | 20° C | 17% | 1013 hPa | 0 mm | - | - | - |
| 1778240702 | 18.89° C | 17% | 1010 hPa | 0 mm | - | - | - |
| 1778239619 | 18.33° C | 23% | 1013 hPa | 0 mm | - | - | - |
| 1778239258 | 17.78° C | 23% | 1013 hPa | 0 mm | - | - | - |
| 1778238901 | 17.78° C | 25% | 1013 hPa | 0 mm | - | - | - |
| 1778238537 | 17.22° C | 25% | 1013 hPa | 0 mm | - | - | - |
| 1778238177 | 16.67° C | 24% | 1013 hPa | 0 mm | - | - | - |
| 1778236377 | 18.33° C | 26% | 1014 hPa | 0 mm | - | - | - |
| 1778235662 | 17.78° C | 25% | 1014 hPa | 0 mm | - | - | - |
| 1778235656 | 17.78° C | 25% | 1014 hPa | 0 mm | - | - | - |
| 1778235296 | 16.67° C | 27% | 1014 hPa | 0 mm | - | - | - |
| 1778234577 | 16.67° C | 28% | 1014 hPa | 0 mm | - | - | - |
| 1778234217 | 16.11° C | 27% | 1014 hPa | 0 mm | - | - | - |
| 1778233857 | 16.67° C | 26% | 1014 hPa | 0 mm | - | - | - |
| 1778233498 | 16.67° C | 29% | 1014 hPa | 0 mm | - | - | - |
| 1778232773 | 15.56° C | 30% | 1014 hPa | 0 mm | - | - | - |
| 1778232419 | 15.56° C | 32% | 1014 hPa | 0 mm | - | - | - |
| 1778232411 | 15.56° C | 32% | 1014 hPa | 0 mm | - | - | - |
| 1778230962 | 15.56° C | 33% | 1014 hPa | 0 mm | - | - | - |
| 1778230598 | 15.56° C | 35% | 1014 hPa | 0 mm | - | - | - |
* Rain latest hour (hover to see other rain measurements)
** Current wind speed in m/s (hover to see current wind gust speed)